Date,TemperatureHighF,TemperatureAvgF,TemperatureLowF,DewpointHighF,DewpointAvgF,DewpointLowF,HumidityHigh,HumidityAvg,HumidityLow,PressureMaxIn,PressureMinIn,WindSpeedMaxMPH,WindSpeedAvgMPH,GustSpeedMaxMPH,PrecipitationSumIn
2013-1-1,60.1,53.5,49.8,46.4,37.3,32.0,71,56,48,30.18,30.09,10,5,17,0.00
2013-1-2,61.5,53.6,48.2,33.8,31.8,28.4,55,44,35,30.27,30.18,8,6,15,0.00
2013-1-3,58.1,53.2,47.1,37.4,32.5,26.6,59,46,38,30.59,30.27,14,6,26,0.00
2013-1-4,57.9,51.9,44.2,44.6,40.1,35.6,82,67,49,30.62,30.53,7,2,13,0.00
2013-1-5,66.6,54.3,43.5,44.6,37.4,32.0,93,59,33,30.56,30.41,8,4,13,0.00
2013-1-6,65.5,58.2,54.0,35.6,32.7,30.2,44,39,34,30.41,30.30,10,8,17,0.00
2013-1-7,64.2,56.9,52.0,35.6,33.7,30.2,54,43,35,30.33,30.24,10,8,20,0.00
2013-1-8,63.0,55.7,51.8,33.8,31.8,28.4,48,41,34,30.39,30.30,10,8,17,0.00
2013-1-9,62.4,55.2,50.4,33.8,31.3,26.6,45,40,36,30.36,30.27,12,9,19,0.00
2013-1-10,68.7,59.6,54.7,39.2,36.3,33.8,49,43,34,30.30,30.18,10,8,17,0.00
2013-1-11,67.1,59.4,55.6,41.0,37.7,35.6,58,47,34,30.21,30.12,8,6,15,0.00
2013-1-12,67.3,57.6,50.9,42.8,36.3,32.0,67,47,34,30.21,30.09,7,4,14,0.00
2013-1-13,58.1,52.8,48.9,42.8,33.1,28.4,77,48,36,30.09,30.00,15,6,26,0.04
2013-1-14,59.5,52.3,46.4,32.0,29.3,26.6,49,40,35,30.24,30.09,10,8,20,0.00
2013-1-15,58.3,52.0,47.1,32.0,29.4,26.6,46,40,36,30.21,30.15,12,7,21,0.00
2013-1-16,57.6,53.9,48.7,37.4,31.9,30.2,55,43,38,30.21,30.03,15,6,24,0.00
2013-1-17,66.0,60.3,56.3,42.8,37.5,33.8,62,45,34,30.09,30.00,11,6,21,0.00
2013-1-18,67.8,62.3,57.7,46.4,42.4,39.2,56,50,41,30.03,29.74,6,2,14,0.00
2013-1-19,62.1,55.6,50.0,51.8,37.8,28.4,82,53,38,29.74,29.29,20,10,39,0.71
2013-1-20,58.1,52.0,47.7,39.2,30.1,26.6,69,42,36,29.82,29.50,13,7,23,0.00
2013-1-21,58.3,52.7,49.1,48.2,34.3,28.4,94,52,36,30.03,29.74,14,7,26,0.16
2013-1-22,55.8,49.2,42.3,41.0,31.6,28.4,66,51,42,30.03,29.88,11,3,21,0.00
2013-1-23,56.8,51.1,45.9,32.0,28.3,24.8,50,40,36,30.18,29.97,14,8,26,0.00
2013-1-24,61.9,55.8,49.3,42.8,36.5,30.2,63,50,37,30.15,29.97,13,6,26,0.00
2013-1-25,60.8,56.1,50.9,46.4,39.7,33.8,68,56,46,30.06,29.97,6,4,14,0.00
2013-1-26,68.0,60.8,56.7,44.6,40.9,35.6,67,50,36,30.18,30.06,11,7,17,0.00
2013-1-27,64.8,58.5,53.8,41.0,36.8,33.8,56,46,36,30.18,30.12,9,6,21,0.00
2013-1-28,65.7,56.7,50.9,41.0,32.6,26.6,54,41,34,30.36,30.15,12,6,23,0.00
2013-1-29,68.5,53.6,43.9,37.4,30.7,24.8,53,41,33,30.36,30.30,6,2,9,0.00
2013-1-30,73.9,56.4,42.4,41.0,33.9,28.4,60,44,31,30.39,30.33,6,2,9,0.00
2013-1-31,67.5,60.0,51.6,37.4,32.9,28.4,47,36,33,30.44,30.36,7,3,12,0.00
2013-2-1,73.0,62.4,50.9,41.0,34.6,32.0,51,36,32,30.39,30.12,10,6,17,0.00
2013-2-2,61.9,58.4,50.2,37.4,32.2,26.6,44,37,35,30.21,30.03,15,8,27,0.00
2013-2-3,62.6,52.2,45.1,33.8,28.4,24.8,48,39,34,30.36,30.21,12,6,24,0.00
2013-2-4,59.5,49.5,40.3,32.0,27.6,24.8,58,42,35,30.41,30.33,7,2,13,0.00
2013-2-5,69.8,53.3,39.7,39.2,30.9,24.8,61,43,33,30.36,30.15,8,2,13,0.00
2013-2-6,61.5,56.1,49.5,35.6,31.6,26.6,49,39,34,30.18,30.09,14,9,27,0.00
2013-2-7,62.2,52.5,45.3,32.0,27.8,24.8,44,38,34,30.27,30.15,9,6,15,0.00
2013-2-8,62.2,52.9,46.8,32.0,27.4,23.0,38,36,34,30.21,30.00,10,7,17,0.00
2013-2-9,62.2,52.6,46.2,32.0,27.6,23.0,40,37,34,30.27,30.06,9,6,17,0.00
2013-2-10,65.8,53.5,42.4,35.6,28.0,21.2,42,37,33,30.24,30.00,7,3,12,0.00
2013-2-11,56.5,53.4,48.2,35.6,29.5,24.8,53,39,36,30.06,29.91,16,9,31,0.00
2013-2-12,57.4,50.8,44.1,32.0,27.6,24.8,48,39,35,30.15,30.03,14,7,26,0.00
2013-2-13,65.3,56.4,49.5,35.6,31.8,24.8,48,40,34,30.21,30.12,11,8,20,0.00
2013-2-14,70.2,59.5,51.8,39.2,35.0,32.0,49,41,32,30.21,30.09,7,4,11,0.00
2013-2-15,71.2,55.5,44.1,39.2,34.3,30.2,61,46,32,30.15,30.03,5,1,8,0.00
2013-2-16,67.1,53.9,44.6,44.6,37.3,32.0,73,56,34,30.12,30.00,8,1,14,0.00
2013-2-17,64.8,56.9,50.5,44.6,37.7,33.8,74,52,34,30.03,29.91,6,2,11,0.00
2013-2-18,66.7,56.7,48.4,48.2,39.7,33.8,81,56,37,29.94,29.76,12,3,17,0.00
2013-2-19,55.9,54.0,52.0,53.6,50.3,46.4,94,90,80,29.82,29.76,12,6,24,1.44
2013-2-20,60.8,52.5,46.2,50.0,40.4,32.0,97,69,43,30.03,29.82,8,5,15,1.38
2013-2-21,66.9,56.8,48.4,46.4,35.9,30.2,71,47,36,30.03,29.88,8,3,22,0.00
2013-2-22,61.0,56.2,50.9,55.4,49.3,39.2,94,81,48,29.88,29.68,10,2,22,0.32
2013-2-23,59.0,52.1,47.3,41.0,33.4,24.8,80,51,35,30.03,29.65,12,7,24,0.04
2013-2-24,59.2,50.8,43.5,32.0,27.0,23.0,43,38,35,30.12,30.03,10,7,18,0.00
2013-2-25,60.1,50.6,42.6,32.0,26.9,23.0,45,39,35,30.15,30.03,8,6,13,0.00
2013-2-26,57.6,48.5,39.9,32.0,25.4,21.2,49,39,35,30.12,30.03,8,4,15,0.00
2013-2-27,52.9,48.9,42.4,32.0,29.7,24.8,55,46,39,30.06,29.85,12,6,22,0.00
2013-2-28,53.1,46.8,40.1,41.0,34.0,28.4,85,63,42,29.85,29.65,19,6,32,0.79
2013-3-1,60.8,50.7,42.4,32.0,30.1,28.4,59,45,35,30.03,29.85,11,6,20,0.00
2013-3-2,58.8,51.5,41.7,42.8,32.7,28.4,68,50,39,30.03,29.91,11,5,21,0.00
2013-3-3,59.5,55.6,52.9,44.6,39.8,32.0,70,58,44,29.97,29.76,9,6,17,0.00
2013-3-4,59.7,56.2,52.9,48.2,42.9,33.8,82,64,41,29.74,29.35,14,9,31,0.16
2013-3-5,63.0,57.0,54.7,57.2,49.6,42.8,97,80,51,29.44,29.35,11,6,19,0.87
2013-3-6,67.5,59.4,55.2,64.4,50.7,39.2,98,79,41,29.79,29.41,8,2,17,0.76
2013-3-7,67.6,60.8,55.9,62.6,51.0,39.2,98,74,49,29.85,29.71,18,5,35,0.79
2013-3-8,70.5,60.4,0.0,55.4,43.7,37.4,84,57,33,29.88,29.79,13,4,25,0.00
2013-3-9,64.9,59.1,53.2,59.0,46.9,32.0,93,68,43,29.88,29.79,11,2,22,0.12
2013-3-10,62.6,55.1,49.3,46.4,37.8,32.0,75,55,37,29.91,29.82,7,2,13,0.08
2013-3-11,67.3,57.9,50.7,37.4,33.9,32.0,55,42,34,29.94,29.85,10,4,18,0.00
2013-3-12,62.6,56.7,53.2,50.0,40.5,32.0,75,57,41,29.88,29.56,14,3,30,0.00
2013-3-13,59.4,54.6,49.8,39.2,30.6,24.8,55,39,35,29.97,29.65,16,10,28,0.00
2013-3-14,62.4,52.8,44.1,32.0,27.4,21.2,40,36,34,30.09,29.94,11,7,18,0.00
2013-3-15,61.9,53.5,45.9,35.6,28.2,23.0,43,37,35,30.09,30.00,8,4,14,0.00
2013-3-16,57.0,51.1,47.5,39.2,33.8,28.4,70,53,37,30.03,29.82,4,1,11,0.04
2013-3-17,67.8,54.9,46.0,50.0,39.7,32.0,82,59,41,29.82,29.56,10,3,19,0.12
2013-3-18,71.2,60.5,53.6,51.8,41.4,30.2,94,56,32,29.79,29.65,7,4,15,0.00
2013-3-19,61.3,56.0,50.5,53.6,42.0,28.4,94,63,36,29.74,29.59,6,2,16,0.40
2013-3-20,64.8,57.6,51.3,53.6,39.8,32.0,98,58,34,30.09,29.65,11,6,22,0.04
2013-3-21,66.2,57.5,47.8,44.6,34.7,32.0,62,45,33,30.09,29.91,7,3,13,0.00
2013-3-22,63.1,54.5,47.3,48.2,39.7,32.0,75,60,37,29.91,29.79,7,1,15,0.00
2013-3-23,63.3,52.7,47.8,50.0,43.0,35.6,87,73,36,29.82,29.59,7,1,13,0.32
2013-3-24,62.8,55.5,49.1,46.4,38.6,33.8,86,56,37,29.94,29.68,9,4,17,0.00
2013-3-25,68.7,59.0,50.2,39.2,36.2,32.0,54,45,34,30.00,29.94,9,3,17,0.00
2013-3-26,73.4,62.0,54.1,44.6,39.2,35.6,63,45,33,29.94,29.76,7,3,14,0.00
2013-3-27,70.2,62.3,54.7,50.0,42.3,37.4,76,51,34,29.76,29.68,9,2,17,0.00
2013-3-28,74.3,63.3,56.7,48.2,41.8,33.8,74,50,32,30.03,29.74,4,0,10,0.00
2013-3-29,74.7,64.7,57.4,44.6,39.3,35.6,53,41,32,30.06,29.94,6,2,11,0.00
2013-3-30,74.8,65.3,59.5,59.0,46.2,35.6,92,56,32,30.00,29.91,9,4,15,0.12
2013-3-31,69.6,63.1,0.0,53.6,42.2,35.6,65,48,40,29.97,29.71,12,3,21,0.00
2013-4-1,71.1,61.7,56.5,50.0,40.8,33.8,79,50,32,29.88,29.68,16,6,32,0.04
2013-4-2,71.8,61.7,52.9,39.2,36.7,33.8,55,42,32,29.94,29.79,5,2,16,0.00
2013-4-3,63.7,57.8,54.1,51.8,43.4,35.6,81,61,41,29.79,29.62,7,3,14,0.04
2013-4-4,61.3,55.3,50.9,51.8,43.9,35.6,89,69,44,29.68,29.56,6,1,11,0.16
2013-4-5,64.2,56.1,52.9,59.0,44.8,32.0,95,70,43,29.91,29.62,8,3,26,0.12
2013-4-6,65.1,55.9,47.5,35.6,30.7,26.6,45,38,33,30.12,29.91,10,7,19,0.00
2013-4-7,68.4,58.4,50.2,37.4,32.5,28.4,44,38,33,30.12,29.94,7,4,12,0.00
2013-4-8,78.3,64.8,53.4,44.6,36.3,30.2,44,35,31,30.00,29.88,8,5,15,0.00
2013-4-9,78.3,65.1,57.9,44.6,39.1,37.4,51,40,31,30.06,29.94,11,6,20,0.00
2013-4-10,78.1,67.0,59.0,44.6,42.2,39.2,56,43,31,30.12,30.03,9,6,15,0.00
2013-4-11,80.8,68.1,60.4,46.4,42.5,37.4,56,42,30,30.06,29.94,7,5,17,0.00
2013-4-12,78.8,67.3,58.6,44.6,40.4,35.6,56,40,30,30.06,29.94,7,5,13,0.00
2013-4-13,73.4,64.5,55.6,42.8,37.8,33.8,54,39,32,30.15,30.00,9,4,15,0.00
2013-4-14,74.3,63.9,55.9,44.6,40.5,37.4,58,45,32,30.18,30.06,10,3,23,0.00
2013-4-15,76.6,64.4,54.9,51.8,46.3,42.8,74,55,32,30.18,30.09,7,2,11,0.00
2013-4-16,79.7,66.1,56.3,55.4,48.3,44.6,83,57,31,30.15,30.06,6,2,11,0.00
2013-4-17,71.4,62.6,59.5,53.6,49.3,44.6,78,65,40,30.18,30.12,9,2,14,0.00
2013-5-3,62.4,58.8,57.9,44.6,41.1,37.4,61,53,40,30.06,30.03,4,1,8,0.00
2013-5-4,71.8,62.3,52.9,46.4,40.6,33.8,68,48,33,30.15,30.03,9,3,17,0.00
2013-5-5,79.2,66.2,54.5,44.6,41.5,35.6,59,43,30,30.15,30.03,6,2,11,0.00
2013-5-6,84.6,69.6,55.9,48.2,43.1,37.4,58,41,29,30.15,30.06,6,2,12,0.00
2013-5-7,86.9,72.4,61.7,50.0,42.1,35.6,45,35,29,30.12,30.00,7,2,11,0.00
2013-5-8,86.4,72.8,60.6,50.0,41.9,35.6,44,34,29,30.03,29.88,6,1,11,0.00
2013-5-9,94.5,81.2,68.9,53.6,45.8,37.4,33,30,27,29.97,29.91,6,4,20,0.00
2013-5-10,88.9,77.8,70.3,50.0,43.9,39.2,37,31,28,30.03,29.94,10,5,17,0.00
2013-5-11,85.1,71.4,62.2,53.6,47.8,41.0,66,46,29,30.06,29.97,6,2,12,0.00
2013-5-12,70.0,66.8,64.8,57.2,52.2,46.4,79,62,44,30.12,30.03,8,5,17,0.00
2013-5-13,72.5,68.0,63.1,51.8,46.7,41.0,68,49,34,30.12,30.00,8,4,15,0.00
2013-5-14,78.8,69.4,61.9,51.8,46.0,39.2,69,47,30,30.03,29.74,7,3,14,0.00
2013-5-15,76.8,66.8,61.0,44.6,40.1,35.6,49,39,31,29.74,29.59,10,4,21,0.00
2013-5-16,74.5,64.4,57.2,41.0,35.9,32.0,43,36,32,29.74,29.59,12,6,24,0.00
2013-5-17,68.7,61.3,56.1,41.0,37.0,32.0,58,42,34,29.74,29.62,12,4,26,0.00
2013-5-18,70.9,60.5,51.4,39.2,33.6,30.2,44,37,32,30.06,29.74,13,5,26,0.00
2013-5-19,69.6,61.0,53.1,39.2,33.8,32.0,45,37,33,30.12,30.00,8,4,17,0.00
2013-5-20,68.9,60.7,54.1,44.6,35.2,32.0,66,40,33,30.06,29.94,8,3,15,0.00
2013-5-21,72.1,60.7,55.8,46.4,41.1,35.6,72,52,32,30.09,29.94,5,3,12,0.04
2013-5-22,82.9,68.1,54.5,46.4,41.0,33.8,65,40,29,30.09,29.97,8,4,15,0.00
2013-5-23,88.7,75.5,64.0,50.0,42.4,35.6,35,32,28,30.00,29.91,9,5,15,0.00
2013-5-24,90.1,77.1,65.8,51.8,43.2,35.6,34,31,28,29.97,29.88,8,5,13,0.00
2013-5-25,80.4,70.5,63.1,48.2,44.0,41.0,54,40,32,30.03,29.91,7,4,13,0.00
2013-5-26,73.0,66.7,60.6,51.8,46.1,39.2,72,50,35,30.00,29.88,10,6,19,0.00
2013-5-27,75.7,67.3,59.9,50.0,44.1,33.8,72,47,31,29.94,29.79,10,4,19,0.00
2013-5-28,78.3,67.6,58.8,44.6,37.9,33.8,44,35,31,29.94,29.82,10,5,19,0.00
2013-5-29,77.7,68.8,60.1,44.6,38.4,32.0,41,34,31,29.97,29.91,12,7,23,0.00
2013-5-30,84.0,70.6,61.9,48.2,40.2,35.6,47,35,29,30.00,29.91,10,6,17,0.00
2013-5-31,86.4,73.0,58.6,50.0,43.5,33.8,58,37,29,30.00,29.91,9,5,31,0.00
2013-6-1,78.8,71.9,63.0,44.6,40.3,35.6,45,33,30,30.03,29.97,10,4,18,0.00
2013-6-2,82.6,69.2,0.0,46.4,41.6,35.6,51,38,29,30.03,29.94,7,2,13,0.00
2013-6-3,78.3,69.6,57.7,44.6,39.3,32.0,46,34,31,30.03,29.91,9,4,16,0.00
2013-6-4,80.4,69.9,57.2,44.6,39.1,32.0,41,34,30,30.00,29.82,8,2,17,0.00
2013-6-5,84.7,74.1,62.6,48.2,42.5,35.6,44,33,29,29.94,29.79,8,3,14,0.00
2013-6-6,85.3,72.6,63.5,48.2,43.9,39.2,51,38,29,30.00,29.94,7,4,13,0.00
2013-6-7,79.5,69.6,61.3,44.6,39.4,35.6,40,34,30,30.03,29.94,10,5,22,0.00
2013-6-8,77.5,67.4,59.9,42.8,37.3,33.8,40,34,31,30.06,29.97,10,4,17,0.00
2013-6-9,80.2,69.4,59.7,44.6,39.7,35.6,45,35,30,30.03,29.94,10,6,18,0.00
2013-6-10,88.0,74.2,63.1,50.0,43.1,37.4,44,34,28,30.06,29.97,8,5,14,0.00
2013-6-11,92.3,77.3,68.2,53.6,44.7,39.2,44,33,27,30.09,30.00,7,4,13,0.00
2013-6-12,93.0,78.8,65.5,53.6,47.5,39.2,56,35,27,30.09,30.03,7,2,13,0.00
2013-6-13,93.0,79.7,66.0,53.6,45.6,37.4,42,31,27,30.06,29.94,7,2,13,0.00
2013-6-14,91.6,80.0,69.6,53.6,45.6,37.4,44,31,27,30.00,29.91,6,2,14,0.00
2013-6-15,97.0,80.7,68.4,55.4,47.6,39.2,47,33,26,30.00,29.85,7,2,12,0.00
2013-6-16,93.0,77.8,66.9,55.4,48.2,41.0,64,38,27,29.94,29.79,7,2,13,0.00
2013-6-17,89.1,75.7,68.0,57.2,46.9,39.2,69,39,28,29.85,29.76,11,5,20,0.00
2013-6-18,78.1,69.8,62.6,44.6,38.5,33.8,37,33,31,29.94,29.85,10,6,19,0.00
2013-6-19,85.3,72.8,60.6,48.2,41.2,35.6,43,33,29,29.97,29.91,7,2,19,0.00
2013-6-20,87.6,76.1,67.5,50.0,43.4,37.4,47,33,29,30.03,29.91,7,4,13,0.00
2013-6-21,84.7,71.9,62.1,51.8,46.9,41.0,60,44,30,30.03,29.97,6,2,10,0.00
2013-6-22,82.4,72.5,62.8,53.6,46.3,39.2,67,43,29,30.15,30.03,9,3,17,0.00
2013-6-23,86.5,74.9,63.0,50.0,42.7,37.4,43,33,29,30.15,30.00,7,3,13,0.00
2013-6-24,80.2,72.7,64.8,48.2,42.7,37.4,45,35,30,30.12,30.03,10,4,24,0.00
2013-6-25,77.2,70.7,64.8,50.0,48.1,46.4,58,46,36,30.15,30.09,9,4,18,0.00
2013-6-26,77.4,70.6,66.4,51.8,48.5,42.8,62,48,31,30.15,30.09,9,5,17,0.00
2013-6-27,77.4,69.9,62.2,51.8,46.3,42.8,65,46,31,30.15,30.06,10,5,27,0.00
2013-6-28,77.9,70.8,62.8,48.2,43.5,39.2,55,39,31,30.18,30.09,9,3,20,0.00
2013-6-29,81.1,71.6,62.1,46.4,43.1,39.2,50,38,30,30.18,30.09,11,4,24,0.00
2013-6-30,86.0,75.3,63.7,50.0,44.2,41.0,46,35,29,30.12,29.97,8,3,20,0.00
2013-7-1,84.9,75.3,66.7,48.2,43.9,39.2,41,34,29,30.00,29.91,6,2,14,0.00
2013-7-2,84.6,75.1,66.4,50.0,45.8,41.0,48,37,30,30.00,29.94,8,3,15,0.00
2013-7-3,93.0,78.0,67.6,53.6,50.5,48.2,55,41,28,30.03,29.94,6,2,11,0.00
2013-7-4,88.0,76.3,67.8,57.2,52.2,50.0,65,46,29,30.09,30.00,8,3,15,0.00
2013-7-5,85.3,77.2,68.4,57.2,49.2,42.8,66,40,30,30.12,30.06,9,3,21,0.00
2013-7-6,83.5,75.6,67.3,50.0,46.7,42.8,53,38,30,30.15,30.06,0,0,0,0.00
2013-7-7,85.1,75.8,65.8,51.8,48.4,42.8,62,41,29,30.12,30.03,0,0,0,0.00
2013-7-8,89.4,77.5,66.6,51.8,45.2,39.2,43,33,28,30.12,30.03,0,0,0,0.00
2013-7-9,89.4,80.0,68.5,51.8,46.0,39.2,40,32,28,30.09,29.94,0,0,0,0.00
2013-7-10,99.3,83.4,68.9,57.2,48.3,39.2,43,31,26,30.00,29.79,8,2,14,0.00
2013-7-11,93.0,80.9,68.5,53.6,46.5,41.0,39,31,27,29.88,29.79,8,3,15,0.00
2013-7-12,88.7,77.5,67.6,51.8,47.8,42.8,49,37,28,30.00,29.88,6,2,13,0.00
2013-7-13,94.8,77.5,65.5,55.4,48.6,42.8,53,38,27,30.00,29.94,8,3,15,0.00
2013-7-14,91.6,78.3,68.4,53.6,47.7,41.0,56,36,27,30.00,29.94,8,4,14,0.00
2013-7-15,84.7,76.5,68.0,57.2,50.8,44.6,69,44,29,30.06,30.00,10,4,17,0.00
2013-7-16,91.0,79.1,67.3,51.8,48.4,42.8,52,36,28,30.06,30.00,8,3,15,0.00
2013-7-17,92.3,80.4,66.2,53.6,46.2,39.2,43,32,27,30.09,30.00,8,3,15,0.00
2013-7-18,87.8,79.1,67.6,50.0,45.4,39.2,45,32,28,30.06,29.94,8,3,15,0.00
2013-7-19,88.7,78.7,68.2,50.0,47.2,42.8,47,35,28,30.00,29.85,7,2,15,0.00
2013-7-20,88.2,79.0,68.4,50.0,47.8,42.8,45,35,28,29.91,29.85,8,3,17,0.00
2013-7-21,89.1,80.0,71.8,51.8,49.4,46.4,49,36,28,29.97,29.88,8,3,15,0.00
2013-7-22,89.4,80.5,69.8,51.8,49.2,44.6,51,36,28,30.00,29.91,7,2,14,0.00
2013-7-23,92.3,80.9,68.5,57.2,48.7,42.8,55,34,27,29.97,29.85,8,2,13,0.00
2013-7-24,95.2,81.9,71.4,59.0,51.5,42.8,65,38,27,29.97,29.91,7,3,12,0.00
2013-7-25,96.6,80.8,69.1,57.2,50.0,42.8,56,36,27,30.00,29.85,8,2,13,0.00
2013-7-26,97.9,81.9,70.9,57.2,51.5,46.4,61,38,26,29.94,29.76,7,3,13,0.00
2013-7-27,90.9,79.3,70.5,51.8,47.1,42.8,43,34,28,29.88,29.79,8,4,13,0.00
2013-7-28,92.7,80.5,70.2,53.6,45.8,41.0,36,31,27,30.06,29.88,8,6,15,0.00
2013-7-29,90.7,80.1,71.8,51.8,45.3,39.2,33,30,28,30.15,30.06,10,5,17,0.00
2013-7-30,88.7,79.0,68.0,50.0,44.6,37.4,37,31,28,30.15,30.09,8,4,18,0.00
2013-7-31,89.1,78.5,68.4,50.0,47.5,44.6,46,36,28,30.12,29.97,8,2,17,0.00
2013-8-1,88.2,76.9,68.2,55.4,47.8,42.8,54,38,29,30.00,29.85,8,2,15,0.00
2013-8-2,94.8,82.0,71.4,64.4,54.7,48.2,79,43,27,29.97,29.88,9,3,22,0.00
2013-8-3,100.0,83.6,73.4,60.8,55.4,50.0,63,42,26,30.03,29.91,6,3,11,0.00
2013-8-4,95.0,82.0,71.6,60.8,53.6,48.2,64,40,27,30.03,29.97,9,2,13,0.00
2013-8-5,94.1,82.5,74.8,59.0,54.1,48.2,59,40,28,30.03,29.88,9,4,18,0.00
2013-8-6,102.7,84.7,72.5,60.8,55.1,48.2,64,40,25,29.94,29.82,7,2,13,0.00
2013-8-7,100.8,88.3,76.6,59.0,50.7,44.6,42,29,25,29.85,29.76,8,5,15,0.00
2013-8-8,93.7,82.7,75.2,64.4,49.4,42.8,69,33,27,30.06,29.85,12,8,22,0.00
2013-8-9,88.3,80.0,72.0,64.4,53.7,44.6,70,45,28,30.15,30.06,9,4,21,0.00
2013-8-10,90.7,79.3,67.8,55.4,48.9,42.8,57,37,28,30.12,29.97,9,3,14,0.00
2013-8-11,88.5,78.6,67.1,53.6,46.7,41.0,49,34,28,30.06,29.94,8,3,18,0.00
2013-8-12,91.2,79.3,67.6,57.2,47.6,39.2,57,35,28,30.00,29.88,8,3,14,0.00
2013-8-13,89.6,77.5,67.1,57.2,49.0,42.8,55,39,28,29.97,29.88,6,2,13,0.00
2013-8-14,85.8,78.6,73.8,60.8,55.9,51.8,64,48,33,30.00,29.94,9,4,17,0.00
2013-8-15,91.8,79.9,67.5,53.6,49.0,44.6,56,36,27,30.03,29.97,5,2,13,0.00
2013-8-16,93.7,82.0,69.4,53.6,48.3,42.8,44,32,27,30.03,29.91,8,2,15,0.00
2013-8-17,91.8,80.9,71.2,53.6,47.2,42.8,39,32,27,30.00,29.91,9,2,16,0.00
2013-8-18,88.5,79.5,70.7,57.2,52.0,48.2,54,41,30,30.00,29.91,8,2,17,0.00
2013-8-19,92.1,81.0,70.7,59.0,52.6,44.6,60,40,28,30.03,29.97,8,3,14,0.00
2013-8-20,89.2,80.4,70.7,55.4,49.3,44.6,52,36,28,30.06,30.00,9,3,17,0.00
2013-8-21,90.7,80.9,71.1,59.0,52.8,48.2,61,41,28,30.09,29.97,8,2,15,0.00
2013-8-22,93.4,80.4,73.2,59.0,54.9,50.0,60,45,28,30.03,29.85,5,1,10,0.00
2013-8-23,93.6,81.6,70.2,57.2,54.6,51.8,61,42,28,29.91,29.82,6,2,12,0.00
2013-8-24,93.9,82.5,72.9,57.2,53.4,48.2,58,39,27,29.91,29.82,6,2,13,0.00
2013-8-25,89.2,80.3,73.2,57.2,53.2,48.2,55,41,30,29.91,29.74,7,2,13,0.00
2013-8-26,89.4,81.1,72.7,60.8,53.5,48.2,61,42,28,29.79,29.71,9,3,16,0.00
2013-8-27,89.6,79.4,71.4,51.8,49.7,46.4,48,37,28,29.88,29.79,6,2,15,0.00
2013-8-28,86.4,78.4,72.1,55.4,51.0,48.2,59,40,30,29.91,29.85,8,2,16,0.00
2013-8-29,85.3,77.8,73.6,60.8,54.3,48.2,61,47,30,30.03,29.91,9,6,19,0.00
2013-8-30,85.5,77.3,71.6,57.2,51.3,46.4,58,43,29,30.09,29.97,8,2,15,0.00
2013-8-31,83.3,75.3,69.4,68.0,52.4,44.6,86,48,30,30.12,30.06,7,2,17,0.28
2013-9-1,83.1,74.6,65.8,59.0,52.7,48.2,69,50,30,30.12,30.09,6,0,13,0.00
2013-9-2,82.6,75.8,69.1,59.0,52.1,44.6,66,47,31,30.15,30.09,9,2,17,0.00
2013-9-3,83.7,75.9,70.5,57.2,51.9,44.6,63,46,30,30.15,30.09,8,2,15,0.00
2013-9-4,82.8,74.3,66.9,57.2,51.7,46.4,66,48,30,30.12,29.97,7,0,13,0.00
2013-9-5,83.1,76.0,71.6,55.4,52.3,46.4,58,46,32,30.00,29.88,8,4,15,0.00
2013-9-6,87.4,75.7,66.7,57.2,52.1,46.4,70,48,29,29.91,29.82,6,2,13,0.00
2013-9-7,74.3,71.1,64.9,60.8,52.6,44.6,85,55,37,30.00,29.88,7,2,19,0.20
2013-9-8,86.4,74.8,66.6,57.2,52.3,48.2,72,49,29,30.15,30.00,5,2,11,0.00
2013-9-9,86.0,76.3,67.1,57.2,51.5,42.8,70,46,29,30.15,30.06,8,3,14,0.00
2013-9-10,85.1,75.7,66.7,51.8,48.1,42.8,59,40,29,30.15,29.97,8,2,16,0.00
2013-9-11,82.9,74.9,65.7,59.0,47.9,42.8,64,41,30,30.03,29.94,8,3,13,0.00
2013-9-12,84.9,75.6,66.7,59.0,51.4,46.4,65,46,29,30.06,30.00,8,3,17,0.00
2013-9-13,80.6,75.2,71.8,60.8,54.4,46.4,68,51,33,30.15,30.06,7,2,14,0.00
2013-9-14,80.6,74.6,70.9,57.2,52.7,44.6,61,49,32,30.15,30.00,0,0,0,0.00
2013-9-15,90.3,76.9,67.6,59.0,50.9,46.4,62,43,28,30.03,29.85,6,2,11,0.00
2013-9-16,90.1,77.6,71.1,59.0,53.3,42.8,65,46,29,29.91,29.82,6,2,10,0.00
2013-9-17,94.5,82.0,73.8,55.4,47.2,41.0,55,31,27,29.91,29.82,8,5,15,0.00
2013-9-18,88.9,77.4,68.2,50.0,45.9,42.8,46,34,28,29.97,29.88,9,6,17,0.00
2013-9-19,91.0,78.1,69.1,51.8,45.9,42.8,42,33,28,29.94,29.85,8,5,15,0.00
2013-9-20,82.6,76.0,68.9,59.0,51.0,41.0,67,44,31,30.06,29.91,8,4,16,0.00
2013-9-21,82.8,74.1,68.2,59.0,52.5,44.6,68,50,30,30.15,30.06,7,2,14,0.00
2013-9-22,80.2,72.9,66.2,60.8,53.5,48.2,71,54,33,30.18,30.12,8,2,17,0.00
2013-9-23,80.6,72.5,66.2,59.0,51.6,46.4,68,51,32,30.15,30.03,8,2,15,0.00
2013-9-24,82.9,73.4,65.1,55.4,48.5,39.2,67,45,29,30.03,29.91,7,2,13,0.00
2013-9-25,83.3,74.1,62.4,48.2,43.3,37.4,47,35,29,29.94,29.85,7,3,12,0.00
2013-9-26,84.7,73.7,63.0,50.0,45.1,41.0,48,38,29,29.91,29.85,6,2,13,0.00
2013-9-27,84.2,73.6,66.4,53.6,49.6,44.6,59,45,29,29.91,29.82,7,2,19,0.00
2013-9-28,75.7,69.4,0.0,69.8,57.7,42.8,98,72,33,29.88,29.82,11,2,25,0.71
2013-9-29,80.1,71.9,65.7,55.4,48.8,41.0,68,47,31,29.94,29.85,6,1,12,0.00
2013-9-30,89.6,76.4,66.9,53.6,48.7,41.0,58,40,29,29.91,29.79,7,1,13,0.00
2013-10-1,88.9,78.6,72.1,55.4,51.3,46.4,55,41,29,29.88,29.82,8,4,13,0.00
2013-10-2,90.1,77.4,70.3,51.8,48.7,44.6,48,38,28,29.85,29.71,7,4,13,0.00
2013-10-3,86.9,75.8,68.9,57.2,50.6,48.2,66,44,29,29.91,29.79,6,3,10,0.00
2013-10-4,83.3,75.0,69.3,59.0,53.6,42.8,70,51,32,30.06,29.91,5,2,11,0.00
2013-10-5,86.7,75.1,67.6,50.0,44.6,39.2,50,35,29,30.12,30.03,7,4,14,0.00
2013-10-6,79.5,70.9,62.2,55.4,47.5,41.0,60,45,36,30.12,30.03,7,2,13,0.00
2013-10-7,78.3,72.3,68.5,62.6,54.4,44.6,78,57,31,30.09,30.03,7,3,14,0.00
2013-10-8,77.9,69.7,62.6,57.2,51.8,46.4,74,56,35,30.12,30.03,9,3,16,0.00
2013-10-9,77.2,70.4,65.8,59.0,51.3,44.6,75,54,33,30.09,29.97,9,2,20,0.00
2013-10-10,79.0,70.4,63.5,55.4,48.4,41.0,73,50,30,30.00,29.88,7,1,15,0.00
2013-10-11,84.2,70.5,61.7,57.2,48.5,42.8,66,48,30,29.94,29.82,6,2,10,0.00
2013-10-12,83.8,71.7,60.6,48.2,40.9,35.6,47,34,29,30.06,29.91,6,2,12,0.00
2013-10-13,82.9,70.8,63.9,46.4,40.8,37.4,43,35,29,30.12,30.00,7,5,17,0.00
2013-10-14,80.6,71.4,64.4,44.6,40.4,35.6,41,34,30,30.12,30.03,7,3,11,0.00
2013-10-15,84.6,71.9,63.5,48.2,42.5,37.4,49,36,29,30.12,30.06,6,3,10,0.00
2013-10-16,87.8,73.2,64.0,53.6,45.2,37.4,66,39,28,30.12,30.00,7,2,10,0.00
2013-10-17,79.9,68.7,60.6,53.6,44.6,39.2,69,45,30,30.03,29.97,6,1,13,0.00
2013-10-18,82.6,68.8,58.1,46.4,41.8,35.6,53,39,29,30.00,29.91,7,1,11,0.00
2013-10-19,85.5,71.5,62.8,50.0,44.8,39.2,53,40,29,30.03,29.94,8,3,13,0.00
2013-10-20,82.6,71.1,63.9,53.6,46.4,39.2,63,44,29,30.09,30.00,5,2,9,0.00
2013-10-21,80.6,69.7,61.9,51.8,41.9,35.6,62,38,30,30.06,29.91,5,2,12,0.00
2013-10-22,70.3,65.8,60.8,53.6,49.5,42.8,79,59,39,29.94,29.85,5,1,13,0.00
2013-10-23,73.2,66.7,61.9,68.0,57.1,48.2,98,76,43,30.03,29.94,3,0,13,0.36
2013-10-24,79.2,68.5,64.9,60.8,53.8,41.0,82,64,33,30.03,29.91,4,1,10,0.00
2013-10-25,74.5,69.2,63.3,55.4,51.0,44.6,78,56,36,29.94,29.85,6,2,11,0.00
2013-10-26,71.1,65.9,0.0,51.8,48.3,39.2,71,54,37,30.15,29.94,5,2,14,0.04
2013-10-27,76.6,66.7,59.7,51.8,45.8,42.8,72,50,32,30.18,30.12,7,3,12,0.00
2013-10-28,80.2,69.3,58.3,59.0,48.2,41.0,83,53,31,30.15,29.97,6,2,9,0.00
2013-10-29,73.4,67.8,62.4,42.8,38.4,32.0,46,35,31,30.03,29.97,12,8,23,0.00
2013-10-30,74.1,63.3,57.4,41.0,34.8,30.2,46,35,31,30.15,30.03,9,4,17,0.00
2013-10-31,71.4,61.3,55.2,44.6,39.3,35.6,61,47,32,30.21,30.12,6,2,12,0.00
2013-11-1,71.4,60.3,52.2,48.2,39.9,33.8,78,51,32,30.24,30.12,5,1,10,0.00
2013-11-2,75.4,61.1,50.4,42.8,36.8,32.0,53,42,31,30.15,30.00,6,1,9,0.00
2013-11-3,80.1,68.8,56.3,44.6,38.4,32.0,50,34,30,30.09,30.00,9,6,16,0.00
2013-11-4,69.4,65.4,60.1,42.8,39.0,35.6,48,40,33,30.12,30.03,12,7,22,0.00
2013-11-5,75.4,69.0,64.9,42.8,41.5,39.2,43,38,32,30.15,30.06,12,9,23,0.00
2013-11-6,81.3,69.2,61.7,46.4,42.3,39.2,47,39,30,30.12,30.03,8,4,15,0.00
2013-11-7,79.5,67.8,59.0,44.6,41.4,37.4,57,40,30,30.09,30.00,8,4,17,0.00
2013-11-8,74.5,66.7,62.1,41.0,39.2,35.6,47,38,32,30.12,30.06,11,8,21,0.00
2013-11-9,74.7,65.5,60.1,42.8,38.1,32.0,50,38,31,30.27,30.09,9,7,15,0.00
2013-11-10,76.8,65.4,57.6,42.8,35.6,32.0,36,34,31,30.30,30.18,10,6,16,0.00
2013-11-11,81.5,69.1,62.4,46.4,38.0,33.8,44,33,30,30.18,30.03,9,5,17,0.00
2013-11-12,72.9,63.1,56.3,41.0,37.0,32.0,52,39,32,30.12,30.06,7,2,15,0.00
2013-11-13,70.7,61.0,54.0,46.4,37.9,33.8,66,45,33,30.12,30.03,6,2,13,0.00
2013-11-14,70.9,62.4,56.8,41.0,37.7,35.6,50,41,33,30.18,30.09,7,2,14,0.00
2013-11-15,71.4,60.6,54.5,39.2,35.0,30.2,52,39,32,30.18,29.91,10,5,17,0.00
2013-11-16,60.4,52.3,48.4,32.0,27.9,24.8,44,38,35,29.97,29.91,6,3,13,0.00
2013-11-17,63.3,53.6,46.9,33.8,29.8,26.6,50,39,34,29.97,29.88,7,4,13,0.00
2013-11-18,64.4,54.5,48.2,39.2,32.9,28.4,72,45,34,29.88,29.76,8,5,16,0.08
2013-11-19,64.9,56.3,50.5,35.6,31.7,28.4,46,39,34,29.94,29.82,10,6,20,0.00
2013-11-20,65.8,56.7,51.8,35.6,31.2,26.6,42,37,33,30.09,29.94,10,7,17,0.00
2013-11-21,61.3,53.7,45.3,32.0,28.2,23.0,40,37,34,30.09,29.85,8,3,15,0.00
2013-11-22,63.3,55.2,50.4,35.6,31.8,28.4,53,42,35,29.88,29.79,8,5,15,0.00
2013-11-23,61.2,55.0,50.5,35.6,31.1,26.6,53,40,34,29.91,29.79,8,6,16,0.00
2013-11-24,63.1,53.0,45.9,33.8,27.6,23.0,42,37,34,29.97,29.82,7,4,13,0.00
2013-11-25,63.0,52.7,45.1,37.4,30.2,23.0,62,42,34,30.12,29.97,5,2,9,0.00
2013-11-26,61.0,51.0,42.1,37.4,30.7,23.0,58,46,35,30.15,30.09,7,3,13,0.00
2013-11-27,58.5,55.5,51.3,35.6,33.9,32.0,51,46,40,30.12,30.06,10,6,18,0.00
2013-11-28,58.5,55.6,53.1,33.8,32.3,32.0,48,42,37,30.24,30.12,15,9,26,0.00
2013-11-29,59.7,51.9,44.1,32.0,30.3,26.6,58,44,35,30.30,30.21,12,2,19,0.00
2013-11-30,62.6,52.3,43.3,44.6,32.7,26.6,77,50,34,30.27,29.88,9,4,17,0.00
2013-12-1,60.8,51.8,44.6,32.0,26.6,21.2,38,36,34,30.03,29.85,9,5,22,0.00
2013-12-2,60.4,49.8,41.4,37.4,29.9,21.2,63,47,36,30.15,30.03,7,2,13,0.00
2013-12-3,58.5,52.9,46.4,44.6,37.7,33.8,77,59,43,30.24,30.15,9,3,17,0.00
2013-12-4,61.5,55.6,49.6,48.2,42.3,32.0,75,63,48,30.30,30.24,7,3,14,0.00
2013-12-5,63.0,55.3,48.7,51.8,41.0,35.6,84,62,38,30.33,30.27,6,2,11,0.00
2013-12-6,62.2,51.7,43.5,53.6,40.0,35.6,89,68,37,30.30,30.18,5,1,10,0.00
2013-12-7,60.6,51.5,46.8,50.0,38.7,32.0,83,65,37,30.27,30.18,5,1,9,0.00
2013-12-8,60.4,50.1,41.0,50.0,37.0,30.2,87,64,38,30.33,30.24,6,1,10,0.00
2013-12-9,59.0,53.9,48.4,44.6,41.0,37.4,75,64,49,30.36,30.30,9,4,19,0.00
2013-12-10,59.9,57.3,53.1,41.0,38.3,35.6,62,51,45,30.39,30.33,13,8,26,0.00
2013-12-11,62.2,58.5,55.4,41.0,37.4,33.8,55,47,38,30.39,30.33,15,9,26,0.00
2013-12-12,63.5,54.1,47.7,48.2,37.9,32.0,81,58,35,30.39,30.30,5,1,11,0.00
2013-12-13,69.4,57.3,49.1,44.6,37.0,33.8,71,50,33,30.33,30.24,8,3,15,0.00
2013-12-14,60.8,58.2,55.4,44.6,40.2,37.4,60,53,44,30.44,30.27,8,5,14,0.00
2013-12-15,60.1,56.9,50.9,44.6,39.2,35.6,68,54,42,30.47,30.39,10,6,19,0.00
2013-12-16,59.9,57.1,52.9,46.4,40.6,37.4,71,56,45,30.41,30.30,8,4,17,0.00
2013-12-17,61.2,57.5,55.9,46.4,43.1,39.2,70,61,49,30.36,30.27,7,2,15,0.00
2013-12-18,63.5,56.9,51.8,51.8,43.2,32.0,85,64,39,30.36,30.24,6,1,11,0.00
2013-12-19,65.3,57.2,51.6,46.4,35.9,30.2,71,46,37,30.27,29.94,12,5,26,0.12
2013-12-20,57.4,51.3,46.8,32.0,27.7,24.8,43,39,35,30.39,30.09,13,8,24,0.00
2013-12-21,62.8,52.7,45.0,35.6,28.7,23.0,49,39,34,30.44,30.36,8,4,14,0.00
2013-12-22,63.3,52.9,45.1,48.2,36.8,32.0,75,57,36,30.47,30.36,5,1,8,0.00
2013-12-23,62.4,53.9,48.2,46.4,41.3,35.6,81,66,39,30.41,30.24,4,1,9,0.00
2013-12-24,59.9,51.7,41.5,50.0,40.0,35.6,91,68,46,30.24,29.94,12,3,25,0.00
2013-12-25,60.3,57.1,52.9,55.4,45.0,32.0,92,67,42,29.94,29.62,21,9,40,0.76
2013-12-26,60.8,56.3,52.5,33.8,31.9,30.2,44,39,35,30.18,29.91,15,7,26,0.00
2013-12-27,64.8,58.0,52.9,39.2,35.4,32.0,56,44,36,30.21,30.00,7,3,13,0.00
2013-12-28,57.2,55.0,50.5,48.2,36.0,26.6,82,50,36,30.21,29.94,12,5,23,0.04
2013-12-29,59.2,51.3,46.4,32.0,28.7,26.6,46,40,35,30.39,30.21,9,7,17,0.00
2013-12-30,58.6,48.2,38.7,33.8,28.4,23.0,62,46,37,30.41,30.30,5,1,8,0.00
2013-12-31,63.3,50.8,41.9,35.6,32.0,28.4,75,51,34,30.30,30.12,8,3,12,0.00
2014-1-1,68.4,58.6,52.9,41.0,36.8,30.2,57,46,34,30.18,30.06,8,4,15,0.00
2014-1-2,61.2,57.3,53.6,48.2,44.3,39.2,76,64,54,30.15,30.06,1,0,5,0.00